Weather History for Belen, NM

Change the Weather History Date:

Tuesday, May 28, 2013

  Actual Average (KABQ) Record (KABQ)
Temperature  
Mean Temperature 69 °F 69 °F  
Max Temperature 87 °F 83 °F 97 °F (1951)
Min Temperature 51 °F 56 °F 38 °F (1916)
Degree Days  
Heating Degree Days 0 1  
Month to date heating degree days 69  
Since 1 July heating degree days 4173  
Cooling Degree Days 4 5  
Month to date cooling degree days 75  
Year to date cooling degree days 82  
Growing Degree Days 19 (Base 50)    
Moisture  
Dew Point 7 °F    
Average Humidity 9    
Maximum Humidity 18    
Minimum Humidity 4    
Precipitation  
Precipitation 0.00 in 0.02 in 0.77 in (1937)
Month to date precipitation 0.45  
Year to date precipitation 2.49  
Snow  
Snow 0.00 in - - ()
Month to date snowfall  
Since 1 July snowfall  
Snow Depth -    
Sea Level Pressure  
Sea Level Pressure 29.83 in    
Wind  
Wind Speed 8 mph (SW)    
Max Wind Speed 24 mph    
Max Gust Speed 30 mph    
Visibility 10 miles    
Events      
T = Trace of Precipitation, MM = Missing Value Source: NWS Daily Summary

Daily Weather History Graph

Daily Weather History Graph

Search for Another Location

Airport:

Trip Planner

Search our weather history database for the weather conditions in past years. The results will help you decide how hot, cold, wet, or windy it might be!

Date:

Astronomy

May. 28, 2013 Rise Set
Actual Time 5:56 AM MDT 8:12 PM MDT
Civil Twilight 5:28 AM MDT 8:41 PM MDT
Nautical Twilight 4:52 AM MDT 9:17 PM MDT
Astronomical Twilight 4:14 AM MDT 9:55 PM MDT
Moon 11:43 PM MDT (5/28) 9:44 AM MDT (5/28)
Length of Visible Light 15h 13m
Length of Day
14h 16m
Waning Gibbous, 82% of the Moon is Illuminated
May 28
Waning Gibbous
May 31
Last Quarter
Jun 8
New
Jun 16
First Quarter
Jun 23
Full

Hourly Weather History & Observations

Time (MDT) Temp. Dew Point Humidity Pressure Visibility Wind Dir Wind Speed Gust Speed Precip Events Conditions
12:15 AM 64.2 °F 12.2 °F 13% 29.93 in 10.0 mi WSW 5.8 mph - N/A   Clear
12:35 AM 64.6 °F 12.4 °F 13% 29.93 in 10.0 mi West 4.6 mph - N/A   Clear
12:55 AM 62.2 °F 11.1 °F 13% 29.93 in 10.0 mi West 4.6 mph - N/A   Clear
1:15 AM 62.6 °F 11.3 °F 13% 29.93 in 10.0 mi North 4.6 mph - N/A   Clear
1:35 AM 64.0 °F 12.4 °F 13% 29.93 in 10.0 mi ENE 4.6 mph - N/A   Clear
1:55 AM 64.2 °F 12.7 °F 13% 29.91 in 10.0 mi ENE 4.6 mph - N/A   Clear
2:15 AM 63.5 °F 14.0 °F 15% 29.91 in 10.0 mi East 6.9 mph - N/A   Clear
2:35 AM 59.2 °F 13.5 °F 17% 29.91 in 10.0 mi South 3.5 mph - N/A   Clear
2:55 AM 56.7 °F 11.1 °F 16% 29.91 in 10.0 mi SSW 4.6 mph - N/A   Clear
3:15 AM 57.0 °F 11.5 °F 17% 29.90 in 10.0 mi South 6.9 mph - N/A   Clear
3:35 AM 56.1 °F 10.8 °F 17% 29.91 in 10.0 mi SSW 6.9 mph - N/A   Clear
3:55 AM 54.9 °F 8.4 °F 16% 29.91 in 10.0 mi SSW 8.1 mph - N/A   Clear
4:15 AM 56.3 °F 9.0 °F 15% 29.91 in 10.0 mi WSW 11.5 mph - N/A   Clear
4:35 AM 55.4 °F 8.2 °F 15% 29.91 in 10.0 mi WSW 5.8 mph - N/A   Clear
4:55 AM 51.4 °F 8.6 °F 18% 29.91 in 10.0 mi SSW 6.9 mph - N/A   Clear
5:15 AM 55.4 °F 8.4 °F 15% 29.91 in 10.0 mi SW 11.5 mph - N/A   Clear
5:35 AM 54.0 °F 8.4 °F 16% 29.91 in 10.0 mi WSW 11.5 mph - N/A   Clear
5:55 AM 55.0 °F 8.6 °F 16% 29.91 in 10.0 mi SW 10.4 mph - N/A   Clear
6:15 AM 53.4 °F 9.1 °F 17% 29.91 in 10.0 mi SW 10.4 mph - N/A   Clear
6:35 AM 55.0 °F 9.1 °F 16% 29.91 in 10.0 mi WSW 9.2 mph - N/A   Clear
6:55 AM 57.7 °F 10.0 °F 15% 29.91 in 10.0 mi WSW 8.1 mph - N/A   Clear
7:15 AM 61.0 °F 10.8 °F 14% 29.91 in 10.0 mi SW 10.4 mph - N/A   Clear
7:35 AM 63.7 °F 11.3 °F 13% 29.91 in 10.0 mi WSW 8.1 mph - N/A   Clear
7:55 AM 66.4 °F 12.0 °F 12% 29.91 in 10.0 mi WSW 9.2 mph - N/A   Clear
8:15 AM 68.5 °F 12.4 °F 11% 29.92 in 10.0 mi WSW 10.4 mph - N/A   Clear
8:35 AM 70.3 °F 12.4 °F 11% 29.91 in 10.0 mi WSW 6.9 mph - N/A   Clear
8:55 AM 71.2 °F 12.2 °F 10% 29.92 in 10.0 mi WSW 4.6 mph - N/A   Clear
9:15 AM 71.6 °F 12.2 °F 10% 29.92 in 10.0 mi WSW 4.6 mph - N/A   Clear
9:35 AM 72.5 °F 12.2 °F 10% 29.91 in 10.0 mi Calm Calm - N/A   Clear
9:55 AM 73.8 °F 12.2 °F 9% 29.91 in 10.0 mi NW 3.5 mph - N/A   Clear
10:15 AM 74.7 °F 12.2 °F 9% 29.90 in 10.0 mi WNW 4.6 mph - N/A   Clear
10:35 AM 75.4 °F 11.3 °F 9% 29.89 in 10.0 mi Calm Calm - N/A   Clear
10:55 AM 76.8 °F 10.9 °F 8% 29.88 in 10.0 mi Calm Calm - N/A   Clear
11:15 AM 77.9 °F 10.4 °F 8% 29.88 in 10.0 mi Calm Calm - N/A   Clear
11:35 AM 78.4 °F 8.4 °F 7% 29.87 in 10.0 mi South 6.9 mph - N/A   Clear
11:55 AM 80.4 °F 8.6 °F 6% 29.87 in 10.0 mi South 8.1 mph - N/A   Clear
12:15 PM 80.8 °F 8.6 °F 6% 29.85 in 10.0 mi SSE 3.5 mph - N/A   Clear
12:35 PM 80.8 °F 8.6 °F 6% 29.84 in 10.0 mi SSW 4.6 mph - N/A   Clear
12:55 PM 82.0 °F 7.3 °F 6% 29.83 in 10.0 mi ESE 5.8 mph - N/A   Clear
1:15 PM 82.6 °F 7.7 °F 6% 29.82 in 10.0 mi SSW 10.4 mph 23.0 mph N/A   Clear
1:35 PM 81.9 °F 6.4 °F 6% 29.81 in 10.0 mi Calm Calm - N/A   Clear
1:55 PM 81.3 °F 7.5 °F 6% 29.80 in 10.0 mi ESE 9.2 mph - N/A   Clear
2:15 PM 84.6 °F 8.1 °F 6% 29.79 in 10.0 mi SE 5.8 mph 16.1 mph N/A   Clear
2:35 PM 85.1 °F 6.8 °F 5% 29.78 in 10.0 mi South 8.1 mph - N/A   Clear
2:55 PM 86.4 °F 3.7 °F 4% 29.76 in 10.0 mi South 15.0 mph 20.7 mph N/A   Clear
3:15 PM 87.3 °F 3.9 °F 4% 29.76 in 10.0 mi SE 8.1 mph 16.1 mph N/A   Clear
3:35 PM 87.8 °F 2.1 °F 4% 29.74 in 10.0 mi South 15.0 mph 19.6 mph N/A   Clear
3:55 PM 84.6 °F 2.8 °F 4% 29.73 in 10.0 mi Calm Calm - N/A   Clear
4:15 PM 86.5 °F -5.3 °F 4% 29.72 in 10.0 mi West 17.3 mph 24.2 mph N/A   Clear
4:35 PM 87.4 °F -5.3 °F 4% 29.71 in 10.0 mi WSW 18.4 mph 24.2 mph N/A   Clear
4:55 PM 87.8 °F 1.2 °F 4% 29.70 in 10.0 mi SSE 12.7 mph 16.1 mph N/A   Clear
5:15 PM 87.4 °F -2.7 °F 4% 29.70 in 10.0 mi South 13.8 mph 29.9 mph N/A   Clear
5:35 PM 85.8 °F -0.2 °F 4% 29.69 in 10.0 mi SW 11.5 mph 23.0 mph N/A   Clear
5:55 PM 85.6 °F -0.0 °F 4% 29.68 in 10.0 mi South 4.6 mph - N/A   Clear
6:15 PM 86.4 °F -1.8 °F 4% 29.68 in 10.0 mi WSW 15.0 mph 18.4 mph N/A   Clear
6:35 PM 84.4 °F -1.5 °F 4% 29.68 in 10.0 mi WSW 8.1 mph - N/A   Clear
6:55 PM 84.6 °F -4.2 °F 4% 29.67 in 10.0 mi WSW 17.3 mph 20.7 mph N/A   Clear
7:15 PM 83.8 °F -7.1 °F 4% 29.67 in 10.0 mi WSW 19.6 mph 23.0 mph N/A   Clear
7:35 PM 82.6 °F -3.6 °F 4% 29.67 in 10.0 mi WSW 20.7 mph 26.5 mph N/A   Clear
7:55 PM 81.9 °F 0.5 °F 4% 29.68 in 10.0 mi WSW 18.4 mph - N/A   Clear
8:15 PM 80.6 °F 4.6 °F 5% 29.69 in 10.0 mi West 20.7 mph - N/A   Clear
8:35 PM 79.7 °F 6.3 °F 6% 29.70 in 10.0 mi West 24.2 mph 28.8 mph N/A   Clear
8:55 PM 79.0 °F 7.3 °F 6% 29.71 in 10.0 mi West 17.3 mph 24.2 mph N/A   Clear
9:15 PM 78.1 °F 7.7 °F 7% 29.73 in 10.0 mi West 24.2 mph 28.8 mph N/A   Clear
9:35 PM 77.4 °F 7.7 °F 7% 29.73 in 10.0 mi West 18.4 mph - N/A   Clear
9:55 PM 76.3 °F 8.2 °F 7% 29.74 in 10.0 mi WNW 16.1 mph 24.2 mph N/A   Clear
10:15 PM 75.6 °F 7.7 °F 7% 29.76 in 10.0 mi West 16.1 mph 20.7 mph N/A   Clear
10:35 PM 74.7 °F 7.7 °F 8% 29.77 in 10.0 mi West 10.4 mph - N/A   Clear
10:55 PM 72.9 °F 8.2 °F 8% 29.77 in 10.0 mi West 9.2 mph 16.1 mph N/A   Clear
11:15 PM 70.0 °F 8.1 °F 9% 29.78 in 10.0 mi West 8.1 mph - N/A   Clear
11:35 PM 70.3 °F 10.2 °F 10% 29.78 in 10.0 mi WNW 13.8 mph - N/A   Clear
11:55 PM 69.4 °F 10.4 °F 10% 29.79 in 10.0 mi West 6.9 mph - N/A   Clear